COSMOS 1823 DEB, 18800

Orbit data source: Space-Track

COSMOS 1823 DEB, 18800 is space debris in LEO originally from a launch on Fri, 20 Feb 1987 UTC launched from the Plesetsk Missile And Space Complex (PKMTR). Debris objects in space refer to the collection of defunct objects orbiting the Earth. Examples of debris include non-operational satellites, rocket bodies, and fragments generated from explosions, collisions, or faulty payload assembly.

Loading next visibility...
Identifier
18800, 1987-020AL
Orbit
LEO
Country
Flag of CISCIS
Related business
Manufacturer
Unknown
Mission
Spacecraft
Bus & Motor
Unknown
Mass
Unknown
Launch date (UTC)
1987-02-20 (39 years ago)
Launch vehicle
Unknown
Launch site
Plesetsk Missile And Space Complex (PKMTR)
Object type
Payload
Rocket body
Debris
Shape & HBR
Unknown shape, 0.2 m
Radar Cross Section
Medium (>0.1 m² and <1 m²)

Expand to show TLE details & history
Last TLE update: 2 days ago

TLE from 2 days ago
0 COSMOS 1823 DEB
1 18800U 87020AL  26171.30721882  .00000068  00000-0  64091-3 0  9999
2 18800  73.5910 122.7228 0052337   4.2887 148.9209 12.39025444741152
Epoch: 2026-06-20T07:22Z
TLE epoch observation values (Epoch: 2026-06-20T07:22:23.706Z)
Latitude
25.35906°
Longitude
-84.3837°
Altitude
1,548.708 km
Speed
7.079 km/s
True Right ascension
19h 38m 57s
True Declination
25° 14' 22"
Sunlit
Object was in daylight at epoch
Visualization orbit readout
Latitude
Unknown
Longitude
Unknown
Altitude
Unknown
Speed
Unknown
Apparent Right ascension
Unknown
Apparent Declination
Unknown
Sunlit
N/A
Visualization observer readout
Local Sidereal Time
01:45:29
Azimuth
Unknown
Elevation
Unknown
Doppler factor
Unknown
Orbital elements
Apogee altitude
1,549.896 km
Perigee altitude
1,467.342 km
Semi-major axis
7,886.756 km
Eccentricity
0.00523
Inclination
73.591°
RAAN
122.7228°
Arg. of periapsis
4.2887°
True anomaly
149.22877°
Mean anomaly
148.9209°
Eccentric anomaly
149.07501°
Mean motion
3.09881 °/min
Orbital period
116.17 mins
BSTAR
0.00064091
Loading maneuver chart data...
Computing Atmospheric mass density...

Documentation

Showing up to 5 results
|